Location: Ch�tillon
(48.8024°N, 2.2935°E)
Time: 22:05:22
(UTC+00:00)

CAS-4A - Pass Details

Date: 04 July 2022
Orbit: 522 x 537 km, 43.0° (Epoch: 07 August)

Event Time Altitude Azimuth Distance (km) Brightness Sun altitude
Exits shadow 03:00:11 - 251° (WSW) 2,051 ? -7.3°
Reaches altitude 10° 03:00:59 10° 248° (WSW) 1,756 ? -7.2°
Maximum altitude 03:04:40 36° 181° (S) 838 ? -6.8°
Drops below altitude 10° 03:08:23 10° 114° (ESE) 1,763 ? -6.4°
Sets 03:10:44 0° 105° (ESE) 2,654 ? -6.1°
